Weather in La Guaira

Venezuela     10°36′07″N   66°55′53″W
temp.,
°C
wind,
m/s
gust,
m/s
humid.,
%
clouds,
%
prec.,
mm/h
press.,
hPa
HPBL,
m
10 may, mon
mon1023:00+18sse239296 0.2 101867
02:00+18sse239398 0.3 101687
05:00+18sse2393100 0.0 101666
08:00+20sse248491 0.0 1017276
11:00+24se245881 0.0 10171148
14:00+26ssw145421 0.1 10141686
17:00+22sw247980 0.5 1013403
20:00+20sse23885 1.3 101565
11 may, tue
tue1123:00+19sse22885 0.1 101753
02:00+18sse23919 0.3 101691
05:00+17sse33895 0.0 101670
08:00+20sse237913 0.0 1016280
11:00+25s026118 0.0 10161280
14:00+25wsw146432 0.9 10131480
17:00+23ssw147972 1.0 1013580
20:00+19sse23916 1.7 1015130
12 may, wed
wed1223:00+19sse228962 0.1 101774
02:00+18sse239497 0.3 101588
05:00+18sse2393100 0.1 101677
08:00+20sse23835 0.1 1017329
11:00+25se136456 0.0 10161179
14:00+26ssw24577 0.2 10131559
17:00+24wsw247447 0.3 1013765
20:00+20ssw139196 0.8 1015105
13 may, thu
thu1323:00+19sse239182 0.1 101672
02:00+18sse239253 0.1 101581
05:00+18sse339274 0.1 101671
08:00+21se238199 0.1 1017196
11:00+25se145060 0.0 10161242
14:00+26ssw144681 0.0 10141688
17:00+24w1365100 0.0 1012526
20:00+20sse22759 0.1 101542
14 may, fri
fri1423:00+19sse227464 0.0 101644
02:00+18sse227096 0.0 101535
05:00+18sse227653 0.0 101637
08:00+21sse237362 0.0 1016171
11:00+26se135010 0.0 10161371
14:00+27ssw144541 0.0 10131927
17:00+25wnw136175 0.0 1011694
20:00+20s23806 0.1 101463